Change the Weather History Date:

Wednesday, July 24, 2013

  Actual Average (KMBS) Record (KMBS)
Temperature  
Mean Temperature 58 °F 71 °F  
Max Temperature 70 °F 82 °F 91 °F (2001)
Min Temperature 46 °F 60 °F 48 °F (2004)
Degree Days  
Heating Degree Days 7    
Month to date heating degree days  
Since 1 June heating degree days  
Since 1 July heating degree days  
Cooling Degree Days 0    
Month to date cooling degree days  
Year to date cooling degree days  
Since 1 June cooling degree days  
Growing Degree Days 8 (Base 50)    
Moisture  
Dew Point 49 °F    
Average Humidity 72    
Maximum Humidity 97    
Minimum Humidity 47    
Precipitation  
Precipitation 0.00 in 0.08 in 1.62 in (1996)
Month to date precipitation 1.97  
Year to date precipitation 16.60  
Snow  
Snow 0.00 in - - ()
Month to date snowfall  
Since 1 June snowfall  
Since 1 July snowfall  
Snow Depth -    
Sea Level Pressure  
Sea Level Pressure 30.02 in    
Wind  
Wind Speed 3 mph (North)    
Max Wind Speed 10 mph    
Max Gust Speed -    
Visibility 10 miles    
Events      
T = Trace of Precipitation, MM = Missing Value Source: NWS Daily Summary

Daily Weather History Graph

Daily Weather History Graph

Search for Another Location

Airport or City:

Trip Planner

Search our weather history database for the weather conditions in past years. The results will help you decide how hot, cold, wet, or windy it might be!

Date:

Astronomy

Jul. 24, 2013 Rise Set
Actual Time 6:18 AM EDT 9:08 PM EDT
Civil Twilight 5:44 AM EDT 9:42 PM EDT
Nautical Twilight 5:01 AM EDT 10:24 PM EDT
Astronomical Twilight 4:11 AM EDT 11:13 PM EDT
Moon 10:06 PM EDT (7/24) 8:43 AM EDT (7/24)
Length of Visible Light 15h 57m
Length of Day
14h 50m
Waning Gibbous, 95% of the Moon is Illuminated
Jul 24
Waning Gibbous
Jul 29
Last Quarter
Aug 6
New
Aug 14
First Quarter
Aug 20
Full

Hourly Weather History & Observations

Time (EDT) Temp. Windchill Dew Point Humidity Pressure Visibility Wind Dir Wind Speed Gust Speed Precip Events Conditions
12:14 AM 57.0 °F - 46.4 °F 68% 29.94 in 10.0 mi North 3.5 mph - N/A   Clear
12:33 AM 56.1 °F - 46.2 °F 69% 29.94 in 10.0 mi North 3.5 mph - N/A   Clear
12:53 AM 53.8 °F - 46.8 °F 77% 29.95 in 10.0 mi Calm Calm - N/A   Clear
1:14 AM 51.4 °F - 46.9 °F 85% 29.95 in 10.0 mi Calm Calm - N/A   Clear
1:33 AM 51.3 °F - 46.9 °F 85% 29.95 in 10.0 mi NW 3.5 mph - N/A   Clear
1:53 AM 49.6 °F - 47.3 °F 92% 29.95 in 10.0 mi Calm Calm - N/A   Clear
2:14 AM 49.3 °F - 47.5 °F 94% 29.96 in 10.0 mi Calm Calm - N/A   Clear
2:33 AM 48.6 °F - 47.3 °F 95% 29.96 in 10.0 mi Calm Calm - N/A   Clear
2:53 AM 49.1 °F - 47.3 °F 93% 29.96 in 10.0 mi NNW 4.6 mph - N/A   Clear
3:13 AM 48.9 °F - 47.1 °F 93% 29.96 in 10.0 mi NW 3.5 mph - N/A   Clear
3:33 AM 47.5 °F - 46.4 °F 96% 29.96 in 10.0 mi NW 3.5 mph - N/A   Clear
3:53 AM 48.2 °F - 46.8 °F 95% 29.96 in 10.0 mi NNW 3.5 mph - N/A   Clear
4:13 AM 47.3 °F - 45.9 °F 95% 29.96 in 10.0 mi Calm Calm - N/A   Clear
4:33 AM 47.1 °F - 45.9 °F 95% 29.96 in 10.0 mi NW 4.6 mph - N/A   Clear
4:53 AM 47.3 °F - 46.0 °F 95% 29.96 in 10.0 mi NNW 3.5 mph - N/A   Clear
5:13 AM 46.4 °F 44.3 °F 45.5 °F 97% 29.97 in 10.0 mi NNW 4.6 mph - N/A   Clear
5:33 AM 46.4 °F 43.5 °F 45.5 °F 97% 29.97 in 10.0 mi NNW 5.8 mph - N/A   Clear
5:53 AM 46.4 °F 45.2 °F 45.5 °F 97% 29.98 in 10.0 mi NNW 3.5 mph - N/A   Clear
6:13 AM 47.3 °F - 46.4 °F 97% 29.99 in 10.0 mi Calm Calm - N/A   Clear
6:33 AM 46.9 °F - 45.9 °F 96% 30.00 in 10.0 mi Calm Calm - N/A   Clear
6:53 AM 46.8 °F - 45.9 °F 97% 30.01 in 10.0 mi NNW 3.5 mph - N/A   Clear
7:12 AM 48.7 °F - 47.3 °F 95% 30.02 in 10.0 mi NNW 3.5 mph - N/A   Clear
7:33 AM 50.4 °F - 48.0 °F 92% 30.02 in 10.0 mi NNW 4.6 mph - N/A   Clear
7:53 AM 52.5 °F - 48.9 °F 88% 30.02 in 10.0 mi NNW 3.5 mph - N/A   Clear
8:11 AM 54.0 °F - 48.9 °F 83% 30.02 in 10.0 mi NNW 3.5 mph - N/A   Clear
8:33 AM 55.8 °F - 49.1 °F 78% 30.03 in 10.0 mi North 4.6 mph - N/A   Clear
8:53 AM 57.4 °F - 48.4 °F 72% 30.04 in 10.0 mi North 4.6 mph - N/A   Clear
9:14 AM 58.3 °F - 47.5 °F 67% 30.04 in 10.0 mi North 10.4 mph - N/A   Clear
9:33 AM 59.4 °F - 47.7 °F 65% 30.05 in 10.0 mi North 6.9 mph - N/A   Clear
9:53 AM 60.6 °F - 47.7 °F 62% 30.05 in 10.0 mi NNE 4.6 mph - N/A   Clear
10:13 AM 61.7 °F - 48.4 °F 62% 30.05 in 10.0 mi North 5.8 mph - N/A   Clear
10:33 AM 63.1 °F - 48.7 °F 59% 30.05 in 10.0 mi NE 4.6 mph - N/A   Clear
10:54 AM 63.1 °F - 48.7 °F 59% 30.06 in 10.0 mi NNE 3.5 mph - N/A   Clear
11:13 AM 64.2 °F - 48.9 °F 58% 30.06 in 10.0 mi East 8.1 mph - N/A   Scattered Clouds
11:33 AM 64.2 °F - 48.6 °F 57% 30.06 in 10.0 mi ENE 3.5 mph - N/A   Scattered Clouds
11:53 AM 64.9 °F - 49.1 °F 56% 30.06 in 10.0 mi East 5.8 mph - N/A   Scattered Clouds
12:13 PM 65.3 °F - 49.1 °F 56% 30.06 in 10.0 mi ENE 6.9 mph - N/A   Scattered Clouds
12:34 PM 66.6 °F - 49.1 °F 53% 30.06 in 10.0 mi NNE 4.6 mph - N/A   Mostly Cloudy
12:53 PM 66.0 °F - 48.4 °F 53% 30.06 in 10.0 mi ENE 6.9 mph - N/A   Scattered Clouds
1:13 PM 66.7 °F - 49.1 °F 53% 30.06 in 10.0 mi Calm Calm - N/A   Scattered Clouds
1:34 PM 67.8 °F - 49.1 °F 51% 30.06 in 10.0 mi NNE 5.8 mph - N/A   Scattered Clouds
1:53 PM 67.3 °F - 48.0 °F 50% 30.05 in 10.0 mi Calm Calm - N/A   Clear
2:13 PM 67.8 °F - 48.6 °F 50% 30.05 in 10.0 mi Calm Calm - N/A   Clear
2:34 PM 68.5 °F - 49.3 °F 50% 30.05 in 10.0 mi Calm Calm - N/A   Scattered Clouds
2:53 PM 69.1 °F - 50.2 °F 51% 30.05 in 10.0 mi East 3.5 mph - N/A   Scattered Clouds
3:14 PM 67.8 °F - 48.9 °F 51% 30.04 in 10.0 mi Calm Calm - N/A   Scattered Clouds
3:33 PM 70.2 °F - 50.2 °F 49% 30.04 in 10.0 mi Calm Calm - N/A   Mostly Cloudy
3:53 PM 69.6 °F - 50.4 °F 50% 30.04 in 10.0 mi NNE 4.6 mph - N/A   Overcast
4:14 PM 70.5 °F - 49.5 °F 47% 30.04 in 10.0 mi Calm Calm - N/A   Scattered Clouds
4:33 PM 69.3 °F - 49.3 °F 49% 30.04 in 10.0 mi Calm Calm - N/A   Clear
4:58 PM 69.1 °F - 48.7 °F 48% 30.04 in 10.0 mi Calm Calm - N/A   Clear
5:14 PM 70.9 °F - 50.5 °F 48% 30.04 in 10.0 mi West 4.6 mph - N/A   Clear
5:33 PM 68.9 °F - 50.7 °F 52% 30.04 in 10.0 mi SSW 6.9 mph - N/A   Scattered Clouds
5:53 PM 68.7 °F - 51.1 °F 53% 30.03 in 10.0 mi South 4.6 mph - N/A   Scattered Clouds
6:14 PM 68.5 °F - 51.1 °F 54% 30.04 in 10.0 mi South 4.6 mph - N/A   Clear
6:33 PM 69.4 °F - 51.4 °F 53% 30.03 in 10.0 mi SSE 5.8 mph - N/A   Clear
6:42 PM 69.1 °F - 51.3 °F 53% 30.03 in 10.0 mi South 6.9 mph - N/A   Clear
7:14 PM 70.0 °F - 51.6 °F 52% 30.03 in 10.0 mi SW 3.5 mph - N/A   Clear
7:33 PM 69.6 °F - 50.5 °F 51% 30.03 in 10.0 mi Calm Calm - N/A   Clear
7:54 PM 69.1 °F - 51.3 °F 53% 30.03 in 10.0 mi South 3.5 mph - N/A   Clear
8:14 PM 68.4 °F - 51.6 °F 55% 30.04 in 10.0 mi South 4.6 mph - N/A   Clear
8:33 PM 67.5 °F - 51.1 °F 56% 30.04 in 10.0 mi South 4.6 mph - N/A   Clear
8:54 PM 65.7 °F - 51.8 °F 61% 30.04 in 10.0 mi Calm Calm - N/A   Clear
9:14 PM 59.5 °F - 53.6 °F 81% 30.04 in 10.0 mi Calm Calm - N/A   Clear
9:54 PM 56.7 °F - 53.2 °F 88% 30.05 in 10.0 mi Calm Calm - N/A   Clear
10:14 PM 56.1 °F - 52.7 °F 88% 30.06 in 10.0 mi Calm Calm - N/A   Clear
10:33 PM 54.5 °F - 52.2 °F 92% 30.06 in 10.0 mi Calm Calm - N/A   Clear
10:54 PM 54.0 °F - 52.7 °F 95% 30.06 in 10.0 mi Calm Calm - N/A   Clear
11:13 PM 53.2 °F - 52.0 °F 95% 30.06 in 10.0 mi Calm Calm - N/A   Clear
11:33 PM 52.5 °F - 51.3 °F 95% 30.07 in 10.0 mi Calm Calm - N/A   Clear
11:54 PM 51.6 °F - 50.7 °F 97% 30.07 in 10.0 mi Calm Calm - N/A   Clear